Regional Weather Roundup
Issued by NWS Little Rock, AR

Home | Current Version | Previous Version | Graphics & Text | Print | Product List | Glossary On
Versions: 1 2 3 4 5 6 7 8 9 10 11 12 13 14 15 16 17 18 19 20 21 22 23 24 25 26 27 28 29 30 31 32 33 34 35 36 37 38 39 40 41 42 43 44 45 46 47 48 49 50
000
ASUS44 KLZK 262305
RWRLZK

WEATHER ROUNDUP FOR ARKANSAS
NATIONAL WEATHER SERVICE LITTLE ROCK AR
500 PM CST MON JAN 26 2015

NOTE: "FAIR" INDICATES FEW OR NO CLOUDS BELOW 12,000 FEET WITH NO
SIGNIFICANT WEATHER AND/OR OBSTRUCTIONS TO VISIBILITY.

ARZ001-003-010-029-270000-
NORTHWEST ARKANSAS

CITY           SKY/WX    TMP DP  RH WIND       PRES   REMARKS
FAYETTEVILLE   CLEAR     55  34  45 W9        29.98F
FORT SMITH     CLEAR     61  34  36 W9        29.99S
HARRISON       CLEAR     58  33  39 W8        29.93S
BENTONVILLE    CLEAR     57  34  41 W8        29.99R
ROGERS         CLEAR     57  34  41 W12       29.98R
SILOAM SPGS    CLEAR     57  34  41 W9        30.00S
HIGHFILL       CLEAR     57  34  41 W8        29.98R
SPRINGDALE     CLEAR     57  34  41 W9        29.99S
$$

ARZ004-005-016-270000-
NORTH CENTRAL ARKANSAS

CITY           SKY/WX    TMP DP  RH WIND       PRES   REMARKS
BATESVILLE     CLEAR     55  30  38 SW13G18   29.91F
FLIPPIN        CLEAR     61  32  33 W10G16    29.91R
MTN HOME       CLEAR     57  32  38 NW7       29.91R
$$

ARZ040-041-270000-
WEST CENTRAL ARKANSAS

CITY           SKY/WX    TMP DP  RH WIND       PRES   REMARKS
MENA           CLEAR     64  36  34 W8        30.00S
MOUNT IDA      CLEAR     65  33  30 VRB5      29.96S
$$

ARZ009-017-025-026-028-270000-
NORTHEAST ARKANSAS

CITY           SKY/WX    TMP DP  RH WIND       PRES   REMARKS
CORNING        FAIR      46  37  71 S7        29.92R
JONESBORO      PTCLDY    49  35  58 SW12      29.92S
NEWPORT        CLEAR     53  33  46 SW12      29.93F
WALNUT RIDGE   PTCLDY    52  32  46 SW14      29.90F
BLYTHEVILLE    CLOUDY    46  35  65 SW9       29.93F
$$

ARZ022-023-033-042-044-270000-
CENTRAL ARKANSAS

CITY           SKY/WX    TMP DP  RH WIND       PRES   REMARKS
LITTLE ROCK    PTCLDY    59  30  33 SW9       29.97S
N LITTLE ROCK  PTCLDY    58  35  41 W3        29.97S
JACKSONVILLE   CLEAR     59  33  37 W6        29.96S
SEARCY         CLEAR     56  31  38 SW10      29.96F
HOT SPRINGS    CLEAR     61  35  37 SW6       29.98S
RUSSELLVILLE   CLEAR     58  33  39 NW9       29.98R
CLINTON        FAIR      55  32  41 SW6       29.96S
$$

ARZ036-270000-
EAST ARKANSAS

CITY           SKY/WX    TMP DP  RH WIND       PRES   REMARKS
WEST MEMPHIS   CLEAR     49  34  56 SW8       29.93F
$$

ARZ050-053-066-070-073-270000-
SOUTHWEST ARKANSAS

CITY           SKY/WX    TMP DP  RH WIND       PRES   REMARKS
ARKADELPHIA    FAIR      60  39  45 SW12      30.02R
CAMDEN         CLEAR     63  30  29 MISG      30.02S
TEXARKANA      CLEAR     63  33  32 SW12      30.04S
EL DORADO      CLEAR     59  34  39 SW7       30.04R
DE QUEEN       CLEAR     63  36  36 W9        30.01S
$$

ARZ056-057-069-270000-
SOUTHEAST ARKANSAS

CITY           SKY/WX    TMP DP  RH WIND       PRES   REMARKS
PINE BLUFF     CLEAR     56  32  40 SW12      29.99F
STUTTGART      CLEAR     55  34  44 SW8       29.99R
MONTICELLO     CLEAR     56  31  38 SW8       30.01S

$$





USA.gov is the U.S. government's official web portal to all federal, state and local government web resources and services.